Flag for U.S.A. Weather past 2 weeks in Lexington, Virginia, U.S.A.

Now
79 °F

Broken clouds.


Feels Like: 81 °F
Forecast: 69 / 90 °F
Wind: 9 mph from West

Location: Hot Springs / Ingalls

Current Time: Jul 30, 2015 at 5:01:49 PM

Latest Report: Jul 30, 2015 at 4:10 PM


Visibility: 10 mi

Pressure: 30.08 "Hg

Humidity: 67%

Dew point: 67 °F

Location of LexingtonLocation

Historic Weather in Lexington — Graph

°F

Lexington temperature yesterday

Maximum temperature yesterday: 76 °F (at 3:30 PM)
Minimum temperature yesterday: 66 °F (at 3:50 AM)
Average temperature yesterday: 71 °F

Past Weeks' High & Low Weather Summary

 TemperatureHumidityPressure
High82 °F (Jul 19, 5:10 PM)100% (Jul 15, 11:10 PM)30.21 "Hg (Jul 15, 11:10 PM)
Low59 °F (Jul 22, 6:10 AM)42% (Jul 25, 3:10 PM)29.87 "Hg (Jul 21, 9:30 AM)
Average70 °F83%30.10 "Hg
* Reported Jul 15 3:10 PM — Jul 30 3:50 PM, Lexington, Weather by CustomWeather, © 2015

Note: Actual official high and low records may vary slightly from our data, if they occured in-between our weather recording intervals... More about our weather records

Advertising

Lexington weather history for previous 24 hours

 ConditionsComfort  
Time TempWeatherWind HumidityBarometerVisibility
3:50 PM
Thu, Jul 30
79 °FBroken clouds.13 mph69%30.08 "Hg10 mi
3:30 PM80 °FScattered clouds.12 mph65%30.08 "Hg10 mi
3:10 PM79 °FScattered clouds.12 mph72%30.09 "Hg10 mi
2:50 PM77 °FPartly sunny.9 mph76%30.10 "Hg10 mi
2:30 PM78 °FMostly cloudy.9 mph76%30.11 "Hg10 mi
2:10 PM78 °FMostly cloudy.8 mph78%30.12 "Hg10 mi
1:50 PM77 °FMostly cloudy.8 mph80%30.13 "Hg10 mi
1:30 PM76 °FMostly cloudy.7 mph83%30.13 "Hg10 mi
1:10 PM76 °FMostly cloudy.7 mph86%30.13 "Hg10 mi
12:50 PM74 °FLow clouds.9 mph87%30.14 "Hg10 mi
12:30 PM73 °FFog.8 mph97%30.14 "Hg1 mi
12:10 PM71 °FFog.10 mph100%30.14 "Hg1 mi
11:50 AM70 °FFog.7 mph100%30.13 "Hg0 mi
11:30 AM70 °FFog.8 mph100%30.14 "Hg0 mi
11:10 AM69 °FFog.8 mph100%30.14 "Hg0 mi
10:50 AM69 °FLight rain. Low clouds.8 mph100%30.14 "Hg0 mi
10:10 AM70 °FFog.10 mph100%30.13 "Hg3 mi
9:50 AM70 °FFog.8 mph100%30.12 "Hg4 mi
9:10 AM69 °FCloudy.9 mph100%30.12 "Hg10 mi
8:50 AM68 °FRain. Mostly cloudy.5 mph100%30.13 "Hg3 mi
8:10 AM68 °FFog.10 mph100%30.12 "Hg2 mi
7:50 AM68 °FMore clouds than sun.12 mph99%30.11 "Hg7 mi
7:10 AM70 °FOvercast.9 mph87%30.11 "Hg10 mi
6:50 AM70 °FPassing clouds.7 mph88%30.11 "Hg10 mi
6:10 AM69 °FPassing clouds.8 mph89%30.11 "Hg10 mi
5:50 AM69 °FPassing clouds.7 mph88%30.10 "Hg10 mi
5:10 AM70 °FOvercast.8 mph89%30.10 "Hg10 mi
4:50 AM70 °FOvercast.8 mph95%30.11 "Hg10 mi
4:30 AM70 °FOvercast.8 mph91%30.10 "Hg10 mi
4:10 AM70 °FMostly cloudy.7 mph94%30.10 "Hg10 mi
3:50 AM70 °FMostly cloudy.9 mph94%30.10 "Hg10 mi
3:10 AM70 °FPartly cloudy.8 mph92%30.12 "Hg10 mi
2:50 AM70 °FPassing clouds.9 mph92%30.12 "Hg10 mi
2:30 AM70 °FPartly cloudy.9 mph90%30.13 "Hg10 mi
2:10 AM70 °FPartly cloudy.8 mph92%30.13 "Hg10 mi
1:50 AM71 °FPartly cloudy.9 mph88%30.14 "Hg10 mi
1:10 AM70 °FPassing clouds.8 mph89%30.15 "Hg10 mi
12:50 AM70 °FPassing clouds.9 mph87%30.15 "Hg10 mi
12:10 AM71 °FClear.8 mph93%30.16 "Hg7 mi
11:50 PM
Wed, Jul 29
70 °FPassing clouds.7 mph100%30.15 "Hg7 mi
11:10 PM71 °FPassing clouds.5 mph99%30.15 "Hg7 mi
10:50 PM71 °FFog.5 mph100%30.15 "Hg4 mi
10:30 PM71 °FFog.5 mph100%30.16 "Hg5 mi
10:10 PM71 °FPartly cloudy.6 mph100%30.16 "Hg7 mi
9:50 PM71 °FPartly cloudy.7 mph98%30.16 "Hg7 mi
9:30 PM72 °FSunny.5 mph99%30.15 "Hg7 mi
9:10 PM72 °FPartly sunny.5 mph89%30.14 "Hg10 mi
8:50 PM72 °FOvercast.5 mph91%30.14 "Hg10 mi
8:10 PM73 °FOvercast.3 mph90%30.14 "Hg7 mi
7:50 PM74 °FMore clouds than sun.3 mph89%30.14 "Hg10 mi
7:30 PM74 °FMore clouds than sun.5 mph87%30.13 "Hg10 mi
7:10 PM74 °FBroken clouds.3 mph89%30.13 "Hg7 mi
6:50 PM75 °FBroken clouds.5 mph86%30.12 "Hg7 mi
6:30 PM75 °FMostly cloudy.6 mph86%30.13 "Hg7 mi
6:10 PM75 °FCloudy.6 mph87%30.12 "Hg7 mi
5:50 PM74 °FLight rain. Cloudy.6 mph89%30.13 "Hg5 mi
5:10 PM75 °FMostly cloudy.5 mph85%30.13 "Hg7 mi
Weather by CustomWeather, © 2015

See weather overviewHow to use our weather pages